7 * 24
多渠道服务支持
目前公开可查的星链卫星NORAD编号最高仅约8万号段,暂无编号为NORAD 100118的STARLINK-38030卫星的官方发射记录、轨道参数及运行状态信息。作为SpaceX星链星座的规划内卫星,若完成发射,它将搭载Ku/Ka波段通信载荷与激光星间链路,运行在低地球轨道,为全球提供宽带互联网服务,具备自主避撞能力,寿命末期将受控再入大气层烧毁,不会产生地面风险。相关具体信息需待其正式发射后由官方披露。
美国
(US)
| 数据来源 | 国际轨道数据 |
| 星历时间: | 2026-09-15T07:46:12+0800 14小时前 查看轨道信息 |
| 半长轴: | 6722.239km |
| 偏心率: | 0.0001252 |
| 轨道倾角: | 97.283° |
| 近地点辐角 | 93.401° |
| 升交点赤经 | 276.028° |
| 平近点角 | 266.740° |
| 近地点: | 343.26km |
| 远地点: | 344.944km |
| 周期: | 91.418分钟 |
| 每日圈数: | 15.751861 |